Location: Holzwiesen
(48.1405°N, 8.8565°E)
Time: 00:10:39
(UTC+00:00)

Daily predictions for brighter satellites

Satellite Brightness Start Highest point End
(mag) Time Altitude Azimuth Time Altitude Azimuth Time Altitude Azimuth
ADEOS II 4.4 00:59:50 10° NNE 01:01:33 20° NE 01:01:33 20° NE
ATLAS CENTAUR R/B 4.3 01:32:08 18° ENE 01:32:08 18° ENE 01:33:36 10° NE
Cosmos 1980 Rocket 4.2 01:30:45 10° NNW 01:41:00 10° ESE 01:41:03 10° ESE
ATLAS 5 CENTAUR R/B 4.5 01:41:57 12° N 01:41:57 12° N 01:43:26 10° NNE
SL-16 R/B 4.4 01:51:00 19° NNW 01:51:00 19° NNW 01:52:37 10° NNW
ALOS 4.0 02:01:27 10° NE 02:05:10 28° E 02:05:10 28° E
Resurs 1-4 Rocket 4.0 02:01:16 10° N 02:03:14 22° N 02:03:14 22° N
IDEFIX/ARIANE 42P 4.0 02:02:55 10° N 02:05:39 31° N 02:05:39 31° N
Cosmos 1833 Rocket 3.3 02:13:00 53° NNE 02:13:00 53° NNE 02:17:17 10° NNE
CZ-2D R/B 3.9 02:16:51 10° N 02:18:59 21° NNW 02:18:59 21° NNW
CENTAUR R/B 3.4 02:27:13 33° SE 02:28:43 38° ESE 02:34:57 10° NE
Lacrosse 4 Rocket 3.4 02:30:46 18° N 02:33:06 29° NE 02:36:58 10° ESE
ARIANE 5 R/B 4.4 02:29:15 10° NE 02:33:23 25° E 02:37:29 10° SSE
CZ-2C R/B 4.1 02:29:22 10° SE 02:34:06 35° ENE 02:38:57 10° N
Helios 1B rocket 4.1 02:34:42 10° NE 02:38:17 29° E 02:39:02 27° ESE
Cosmos 1447 Rocket 4.3 02:32:16 10° N 02:38:36 81° W 02:38:47 80° SW
Meteor 1-10 Rocket 4.1 02:39:08 86° NE 02:39:08 86° NE 02:44:44 10° NNE
Cosmos 2082 Rocket 2.4 02:38:49 59° SE 02:39:25 63° ESE 02:44:58 10° NNE
ADEOS II 3.5 02:39:40 10° N 02:42:27 26° NNW 02:42:27 26° NNW
Cosmos 1624 Rocket 4.2 02:50:31 60° NNW 02:50:31 60° NNW 02:55:15 10° NNE
CZ-2C R/B 2.9 02:45:08 10° NNE 02:50:01 57° E 02:51:09 45° SSE
USA 307 3.9 02:51:30 40° NNE 02:51:30 40° NNE 02:54:37 10° ENE
USA 306 3.8 03:00:25 40° N 03:00:25 40° N 03:03:52 10° ENE
Cosmos 1459 Rocket 4.3 02:55:35 15° S 03:00:58 68° E 03:07:18 10° NNE
COSMOS 2406 3.1 03:01:52 66° WSW 03:02:28 72° WNW 03:08:10 10° NNE
BREEZE-M DEB (TANK) 3.4 03:04:00 34° SE 03:04:00 34° SE 03:07:25 10° ESE
NOSS 3-2 (A) 3.6 03:01:33 42° S 03:03:18 63° SE 03:09:34 10° NE
Cosmos 1605 Rocket 4.3 03:06:05 44° WNW 03:06:05 44° WNW 03:11:41 10° N
Cosmos 1371 Rocket 4.5 03:06:18 44° NW 03:06:18 44° NW 03:10:54 10° NNE
ATLAS CENTAUR R/B 2.2 03:08:06 46° NW 03:08:06 46° NW 03:12:34 10° NNE
Meteor 2-13 Rocket 4.4 03:02:07 10° N 03:08:18 90° ENE 03:14:29 10° S
Cosmos 1328 Rocket 4.0 03:12:11 47° NNW 03:12:11 47° NNW 03:15:40 10° N
Cosmos 1933 Rocket 3.7 03:07:47 10° N 03:12:13 72° E 03:16:36 10° SSE
Cosmos 2322 Rocket 3.5 03:08:42 10° NNW 03:14:04 40° NE 03:19:23 10° ESE
IRS-1C 4.4 03:09:50 10° NNE 03:15:10 67° ESE 03:19:32 15° S
X-37B 3.3 03:18:09 12° SE 03:18:09 12° SE 03:18:27 10° SE
Meteor 1-11 Rocket 3.9 03:11:29 10° NNW 03:17:15 50° W 03:18:14 46° SW
Cosmos 1980 Rocket 3.5 03:23:06 23° SSW 03:23:06 23° SSW 03:25:16 10° S
Cosmos 1975 4.4 03:16:30 10° N 03:20:13 36° ENE 03:23:53 10° SE
SL-08 R/B 4.0 03:15:39 10° SSE 03:20:14 56° ENE 03:24:56 10° N
COSMOS 2455 4.2 03:16:06 10° NNW 03:21:43 38° NE 03:27:17 10° ESE
BREEZE M DEB (TANK) 4.2 03:16:14 26° SW 03:23:41 64° SSE 03:28:08 10° ENE
Cosmos 1850 Rocket 3.9 03:20:35 10° NNW 03:25:56 75° WSW 03:31:16 10° SSE
USA 308 3.6 03:25:30 36° NNW 03:26:07 39° N 03:30:01 10° ENE
PAYLOAD A 3.8 03:21:26 10° N 03:26:17 72° WNW 03:28:15 37° SSW
Cosmos 44 Rocket 3.4 03:26:24 48° WNW 03:26:58 51° NW 03:31:35 10° NNE
SL-19 R/B 4.4 03:21:05 10° NNE 03:27:13 68° WNW 03:30:17 30° SW
ATLAS 5 CENTAUR R/B 4.2 03:24:28 10° NNW 03:27:42 18° NNE 03:31:21 10° ENE
Meteor 2-9 Rocket 4.1 03:24:19 10° NNW 03:30:03 83° W 03:35:36 10° S
Cosmos 1802 Rocket 4.0 03:24:00 10° S 03:30:21 86° E 03:36:41 10° N
Cosmos 1725 Rocket 4.3 03:24:18 10° S 03:30:34 69° E 03:36:52 10° NNE
Cosmos 1378 3.1 03:30:12 38° S 03:31:30 76° E 03:35:09 10° NNE
CBERS-1 4.3 03:27:54 10° N 03:32:49 47° WNW 03:33:56 40° WSW
Cosmos 2056 Rocket 4.4 03:35:21 29° WNW 03:35:36 29° NW 03:40:04 10° N
Meteor 1-19 Rocket 4.0 03:32:43 11° S 03:37:55 87° W 03:43:23 10° N
Cosmos 2173 Rocket 3.9 03:33:20 17° SSW 03:38:01 66° WNW 03:44:07 10° N
Cosmos 1346 Rocket 4.5 03:40:21 20° NW 03:40:21 20° NW 03:42:13 10° NNW
Cosmos 1515 Rocket 3.6 03:37:57 41° SW 03:39:13 57° WNW 03:43:38 10° N
GP-B 3.2 03:35:41 10° S 03:40:06 78° E 03:44:33 10° N
ALOS 2.8 03:38:36 10° N 03:42:55 38° WNW 03:43:37 35° W
Cosmos 1461 2.8 03:42:22 45° WSW 03:43:29 70° NW 03:47:42 10° NE
Cosmos 2278 3.8 03:38:47 10° NW 03:44:15 51° WSW 03:49:41 10° S
SL-16 R/B 2.2 03:39:10 10° NNW 03:44:54 85° ENE 03:50:34 10° SSE
USA 305 3.9 03:44:58 25° NW 03:46:36 36° N 03:50:24 10° ENE
FENGYUN 3A 4.4 03:45:14 10° N 03:50:00 33° WNW 03:51:35 28° W
METEOR-M 4.2 03:47:08 10° N 03:52:24 59° WNW 03:56:56 14° SSW
IRS-P3 4.1 03:49:47 10° N 03:55:06 66° WNW 04:00:22 10° SSW
CZ-3 R/B 4.3 03:39:43 16° SW 03:56:02 32° SSW 04:04:23 10° SE
Cosmos 1833 Rocket 4.1 03:54:43 19° WNW 03:56:19 21° NW 04:00:34 10° N
SJ 16-02 4.3 03:53:47 10° NNE 03:56:24 15° NE 03:59:00 10° E
Cosmos 1741 Rocket 4.3 03:52:36 10° NW 03:57:31 43° WSW 04:02:25 10° S
Cosmos 192 4.3 03:54:43 10° SSW 03:59:41 88° WNW 04:04:41 10° NNE
Cosmos 2228 Rocket 3.2 03:58:12 10° S 04:02:40 77° E 04:07:07 10° NNE
Cosmos 1331 Rocket 3.9 04:00:13 12° SSW 04:05:03 70° WNW 04:10:14 10° NNE
Spot 4 Rocket 4.2 04:00:06 10° NNE 04:05:17 78° ESE 04:10:24 10° SSW
Cosmos 2219 Rocket 3.9 04:00:17 10° NNW 04:05:21 32° NE 04:10:21 10° ESE
YAOGAN 6 2.5 04:02:07 10° N 04:05:43 65° WNW 04:09:16 10° SSW
Cosmos 1302 Rocket 4.4 04:04:04 10° S 04:09:17 66° ESE 04:14:33 10° NNE
Cosmos 1726 4.3 04:06:42 10° NNE 04:09:53 28° ENE 04:13:02 10° SE
Cosmos 1484 Rocket 3.0 04:06:59 10° N 04:10:51 51° WNW 04:14:40 10° SSW
Lacrosse 4 Rocket 1.9 04:07:41 10° NW 04:11:49 42° WSW 04:16:00 10° S
Lacrosse 5 rocket 3.8 04:08:55 10° S 04:12:29 23° SE 04:16:02 10° ENE
ARIANE 5 R/B 2.7 04:07:54 10° N 04:12:43 47° WNW 04:17:28 10° SW
Helios 1B rocket 3.3 04:09:49 10° N 04:13:21 29° WNW 04:15:11 20° WSW
CZ-2C R/B 3.1 04:09:29 10° SSW 04:14:21 38° W 04:19:21 10° NNW
Meteor 1-29 2.7 04:13:09 10° N 04:16:27 69° WNW 04:19:44 10° SSW
CZ-2C R/B 3.2 04:12:59 10° NNE 04:18:46 85° WNW 04:24:13 10° SSW
CENTAUR R/B 2.8 04:14:25 17° WSW 04:19:06 55° NW 04:26:21 10° NE
CZ-4C R/B 3.5 04:17:03 10° S 04:21:17 67° WSW 04:25:39 10° NNW
Cosmos 1110 Rocket 4.2 04:16:35 11° SW 04:21:27 48° WNW 04:26:28 10° NNE
Cosmos 2333 Rocket 3.0 04:16:11 10° NNW 04:21:49 54° ENE 04:27:20 10° SE
Cosmos 2016 Rocket 4.2 04:15:44 10° SSW 04:21:53 50° WNW 04:28:05 10° N
COSMO-SKYMED 1 2.9 04:19:27 10° SSE 04:23:46 70° ENE 04:28:07 10° N
Cosmos 1707 Rocket 3.7 04:19:33 10° S 04:23:54 76° E 04:28:13 10° NNE
Cosmos 2082 Rocket 3.2 04:20:42 17° W 04:23:56 27° NW 04:28:42 10° NNE
Okean 1 4.4 04:23:13 17° WSW 04:25:16 24° WNW 04:28:36 10° NNW
CZ-2C R/B 3.7 04:24:05 10° N 04:27:49 22° WNW 04:30:30 14° W
Cosmos 1452 Rocket 4.3 04:24:11 14° WSW 04:27:59 32° NW 04:32:43 10° N
Cosmos 1869 Rocket 4.0 04:23:52 10° NNW 04:27:59 38° W 04:32:01 10° SSW
USA 276 2.8 04:26:13 13° SW 04:28:40 45° SSE 04:31:35 10° E
Cosmos 2360 Rocket 2.2 04:23:13 10° NNW 04:28:52 88° ENE 04:34:29 10° SSE
Meteor 1-18 Rocket 4.3 04:23:29 10° SSW 04:29:03 57° WNW 04:34:35 10° N
Envisat 3.1 04:24:13 10° N 04:29:11 55° WNW 04:34:08 10° SSW
USA 307 3.9 04:27:02 12° WNW 04:30:33 36° N 04:34:23 10° ENE
Cosmos 968 Rocket 3.5 04:25:37 10° NNW 04:30:43 60° WSW 04:35:44 10° S
ERBS 4.4 04:29:13 10° NNW 04:31:03 15° N 04:32:53 10° NE
Meteor 2-10 4.1 04:26:47 10° N 04:31:59 82° ENE 04:37:01 10° SSE
COSMOS 2487 3.8 04:30:52 10° S 04:33:28 33° ESE 04:36:06 10° NE
MINOTAUR 4 R/B 3.9 04:32:12 10° S 04:35:40 68° WSW 04:39:10 10° NNW
USA 306 3.9 04:36:02 10° WNW 04:39:53 38° N 04:43:44 10° ENE
H-2A R/B 2.8 04:36:40 10° N 04:40:12 48° WNW 04:43:45 10° SSW
Cosmos 2061 Rocket 4.4 04:36:31 10° SW 04:42:19 41° WNW 04:48:11 10° N
SL-24 R/B - RUBIN 2 4.2 04:38:52 11° WSW 04:42:44 37° NW 04:46:50 10° NNE
Cosmos 405 Rocket 4.2 04:40:18 10° SSE 04:44:02 44° E 04:47:51 10° NNE
PSLV R/B 3.6 04:41:09 10° N 04:45:25 60° WNW 04:49:37 10° SSW
Cosmos 1939 Rocket 4.1 04:41:49 10° NNE 04:45:43 46° E 04:49:32 10° S
Cosmos 1733 Rocket 3.0 04:42:39 10° NNW 04:47:04 68° W 04:51:25 10° S
ATLAS CENTAUR R/B 3.7 04:44:50 10° WNW 04:47:45 16° NNW 04:50:38 10° NNE
Cosmos 1066 Rocket 4.3 04:43:38 10° S 04:49:22 89° ESE 04:55:00 10° NNE
Cosmos 2344 4.4 04:40:55 10° NW 04:49:40 86° NE 05:01:56 10° SE
Meteor 2-4 Rocket 4.1 04:46:07 10° SW 04:51:33 44° WNW 04:56:53 10° N
COSMOS 2428 3.9 04:47:34 10° NNW 04:53:07 46° NE 04:58:35 10° SE
NOSS 3-2 (A) 4.2 04:49:14 10° W 04:54:33 37° NNW 05:00:47 10° NE
Genesis I 4.1 04:51:04 10° SSW 04:55:00 55° ESE 04:58:59 10° NE
NOSS 3-2 (C) 3.7 04:49:33 10° WSW 04:55:02 53° NW 05:01:31 10° NE
Cosmos 1975 4.1 04:53:23 10° NW 04:56:19 20° W 04:59:14 10° SW
Cosmos 2322 Rocket 2.7 04:52:52 10° NW 04:58:07 39° WSW 05:03:18 10° S
Cosmos 1437 Rocket 3.2 04:55:10 10° N 04:58:59 65° ENE 05:02:50 10° SSE
Cosmos 2333 4.2 04:53:33 10° NNW 04:59:15 85° WSW 05:04:52 10° SSE
CZ-2C R/B 3.2 04:56:45 10° N 05:00:19 40° WNW 05:03:56 10° SW
Cosmos 2233 Rocket 4.5 04:57:23 10° SW 05:03:17 40° WNW 05:09:13 10° N
